Location: Wavehorne
(51.0500°N, 0.8333°E)
Time: 06:14:53
(UTC+00:00)

NOSS 2-2 (C) - Pass Details

Date: 28 October 2021
Orbit: 444 x 1761 km, 63.3° (Epoch: 06 December)

Event Time Altitude Azimuth Distance (km) Brightness Sun altitude
Exits shadow 02:44:49 13° 145° (SE) 2,797 6.9 -37.0°
Drops below altitude 10° 02:45:33 10° 144° (SE) 3,063 7.1 -36.9°
Sets 02:48:45 0° 144° (SE) 4,241 7.9 -36.4°
